User: anonymous   Login
Location: Unspecified
(39.1734°N, 0.0000°E)
Time: 22:01:10
(UTC+00:00)
Language:

OTV 5 (USA 277) - Orbit

View from above orbital plane
View from above orbital plane
View from above satellite
View from above satellite

Ground track
Ground track

The orbit data is extracted from the following two-line orbital elements,

1 42932U 17052A   19172.98184563 0.00000000  00000-0  00000-0 0    02
2 42932  54.5200 187.4900 0013941  95.1119 264.8880 15.94691760    05
Epoch (UTC): 21 June 2019 23:33:51
Eccentricity: 0.0013941
inclination: 54.5200°
perigee height: 280 km
apogee height: 298 km
right ascension of ascending node: 187.4900°
argument of perigee: 95.1119°
revolutions per day: 15.94691760
mean anomaly at epoch: 264.8880°
orbit number at epoch: 0

The dashed part of the orbit path shows where the satellite is in the earth's shadow,  

DLR